| time (UTC) | temp F | wind direction | speed knots | gust knots | rain 1hr in | rain 24hr in | rain mn in | humidity % | barometer mb |
| 20260509174035 | 85 | 35 | 0.0 | 7.8 | 0.00 | 0.00 | 0.00 | 50 | 1010.0 |
| 20260509173526 | 85 | 35 | 0.9 | 8.7 | 0.00 | 0.00 | 0.00 | 50 | 1010.1 |
| 20260509173031 | 85 | 340 | 1.7 | 8.7 | 0.00 | 0.00 | 0.00 | 50 | 1010.1 |
| 20260509172539 | 85 | 346 | 0.0 | 7.8 | 0.00 | 0.00 | 0.00 | 51 | 1010.1 |
| 20260509172029 | 85 | 20 | 0.9 | 9.6 | 0.00 | 0.00 | 0.00 | 50 | 1010.2 |
| 20260509171601 | 85 | 29 | 2.6 | 9.6 | 0.00 | 0.00 | 0.00 | 51 | 1010.2 |
| 20260509171025 | 85 | 28 | 0.9 | 7.8 | 0.00 | 0.00 | 0.00 | 51 | 1010.3 |
| 20260509170532 | 84 | 6 | 1.7 | 5.2 | 0.00 | 0.00 | 0.00 | 51 | 1010.3 |
| 20260509170119 | 84 | 301 | 2.6 | 7.8 | 0.00 | 0.00 | 0.00 | 53 | 1010.4 |
| 20260509165532 | 84 | 302 | 0.0 | 7.8 | 0.00 | 0.00 | 0.00 | 53 | 1010.3 |
| 20260509165039 | 83 | 347 | 1.7 | 6.1 | 0.00 | 0.00 | 0.00 | 52 | 1010.5 |
| 20260509164526 | 84 | 327 | 1.7 | 8.7 | 0.00 | 0.00 | 0.00 | 51 | 1010.4 |
| 20260509164032 | 83 | 320 | 1.7 | 8.7 | 0.00 | 0.00 | 0.00 | 53 | 1010.5 |
| 20260509163535 | 83 | 322 | 0.9 | 5.2 | 0.00 | 0.00 | 0.00 | 55 | 1010.5 |
| 20260509163023 | 83 | 318 | 0.9 | 7.8 | 0.00 | 0.00 | 0.00 | 52 | 1010.6 |
| 20260509162529 | 83 | 340 | 2.6 | 7.8 | 0.00 | 0.00 | 0.00 | 52 | 1010.6 |
| 20260509162048 | 83 | 11 | 0.9 | 7.8 | 0.00 | 0.00 | 0.00 | 54 | 1010.6 |
| 20260509161605 | 83 | 306 | 0.9 | 6.1 | 0.00 | 0.00 | 0.00 | 56 | 1010.5 |
| 20260509161044 | 82 | 358 | 4.3 | 6.1 | 0.00 | 0.00 | 0.00 | 54 | 1010.5 |
| 20260509160527 | 82 | 318 | 1.7 | 6.1 | 0.00 | 0.00 | 0.00 | 56 | 1010.5 |
| 20260509160034 | 82 | 323 | 1.7 | 4.3 | 0.00 | 0.00 | 0.00 | 54 | 1010.5 |
| 20260509155523 | 81 | 312 | 2.6 | 9.6 | 0.00 | 0.00 | 0.00 | 56 | 1010.3 |
| 20260509155042 | 81 | 311 | 1.7 | 9.6 | 0.00 | 0.00 | 0.00 | 56 | 1010.3 |
| 20260509154526 | 81 | 313 | 0.0 | 10.4 | 0.00 | 0.00 | 0.00 | 57 | 1010.3 |
| 20260509154032 | 81 | 293 | 3.5 | 10.4 | 0.00 | 0.00 | 0.00 | 55 | 1010.3 |
| 20260509153523 | 81 | 331 | 0.9 | 9.6 | 0.00 | 0.00 | 0.00 | 57 | 1010.3 |
| 20260509153027 | 80 | 288 | 3.5 | 9.6 | 0.00 | 0.00 | 0.00 | 58 | 1010.4 |
| 20260509152537 | 80 | 299 | 4.3 | 12.2 | 0.00 | 0.00 | 0.00 | 58 | 1010.4 |
| 20260509152042 | 80 | 297 | 7.8 | 12.2 | 0.00 | 0.00 | 0.00 | 58 | 1010.4 |
| 20260509151526 | 79 | 316 | 2.6 | 9.6 | 0.00 | 0.00 | 0.00 | 58 | 1010.5 |
| 20260509151057 | 79 | 308 | 2.6 | 11.3 | 0.00 | 0.00 | 0.00 | 59 | 1010.5 |
| 20260509150523 | 79 | 299 | 3.5 | 11.3 | 0.00 | 0.00 | 0.00 | 59 | 1010.5 |
| 20260509150032 | 79 | 310 | 3.5 | 11.3 | 0.00 | 0.00 | 0.00 | 58 | 1010.5 |
| 20260509145521 | 78 | 294 | 3.5 | 10.4 | 0.00 | 0.00 | 0.00 | 58 | 1010.6 |
| 20260509145027 | 78 | 310 | 3.5 | 10.4 | 0.00 | 0.00 | 0.00 | 59 | 1010.6 |
| 20260509144552 | 77 | 324 | 3.5 | 10.4 | 0.00 | 0.00 | 0.00 | 61 | 1010.5 |
| 20260509144032 | 77 | 289 | 1.7 | 7.8 | 0.00 | 0.00 | 0.00 | 64 | 1010.4 |
| 20260509143540 | 77 | 297 | 2.6 | 10.4 | 0.00 | 0.00 | 0.00 | 65 | 1010.5 |
| 20260509143027 | 76 | 301 | 4.3 | 10.4 | 0.00 | 0.00 | 0.00 | 67 | 1010.5 |
| 20260509142531 | 76 | 301 | 2.6 | 8.7 | 0.00 | 0.00 | 0.00 | 68 | 1010.5 |
| 20260509142037 | 76 | 343 | 2.6 | 7.8 | 0.00 | 0.00 | 0.00 | 68 | 1010.5 |
| 20260509141544 | 76 | 318 | 0.9 | 5.2 | 0.00 | 0.00 | 0.00 | 73 | 1010.5 |
| 20260509141023 | 75 | 312 | 1.7 | 4.3 | 0.00 | 0.00 | 0.00 | 74 | 1010.5 |
| 20260509140531 | 74 | 309 | 0.9 | 3.5 | 0.00 | 0.00 | 0.00 | 75 | 1010.5 |
| 20260509140020 | 74 | 349 | 0.0 | 0.0 | 0.00 | 0.00 | 0.00 | 77 | 1010.6 |
| 20260509135529 | 74 | 339 | 0.0 | 1.7 | 0.00 | 0.00 | 0.00 | 78 | 1010.6 |
| 20260509135031 | 73 | 343 | 0.0 | 6.1 | 0.00 | 0.00 | 0.00 | 78 | 1010.6 |
| 20260509134519 | 73 | 306 | 0.9 | 6.1 | 0.00 | 0.01 | 0.00 | 80 | 1010.6 |
| 20260509134045 | 73 | 315 | 0.0 | 3.5 | 0.00 | 0.01 | 0.00 | 80 | 1010.5 |
| 20260509133542 | 72 | 306 | 0.9 | 5.2 | 0.00 | 0.01 | 0.00 | 81 | 1010.5 |
| 20260509133042 | 72 | 304 | 0.9 | 5.2 | 0.00 | 0.01 | 0.00 | 82 | 1010.4 |
| 20260509132551 | 71 | 316 | 1.7 | 5.2 | 0.00 | 0.01 | 0.00 | 83 | 1010.4 |
| 20260509132037 | 71 | 297 | 0.0 | 4.3 | 0.00 | 0.01 | 0.00 | 84 | 1010.4 |
| 20260509131545 | 70 | 326 | 0.9 | 3.5 | 0.00 | 0.01 | 0.00 | 85 | 1010.4 |
| 20260509131031 | 70 | 302 | 0.0 | 3.5 | 0.00 | 0.01 | 0.00 | 85 | 1010.4 |
| 20260509130531 | 70 | 302 | 0.0 | 5.2 | 0.00 | 0.01 | 0.00 | 86 | 1010.4 |
| 20260509130038 | 69 | 288 | 0.9 | 5.2 | 0.00 | 0.01 | 0.00 | 86 | 1010.4 |
| 20260509125543 | 69 | 289 | 0.9 | 4.3 | 0.00 | 0.01 | 0.00 | 86 | 1010.5 |
| 20260509125046 | 69 | 290 | 0.0 | 4.3 | 0.00 | 0.01 | 0.00 | 86 | 1010.5 |
| 20260509124548 | 69 | 290 | 0.9 | 4.3 | 0.00 | 0.08 | 0.00 | 86 | 1010.4 |
| 20260509124031 | 68 | 307 | 0.0 | 0.0 | 0.00 | 0.08 | 0.00 | 87 | 1010.5 |
| 20260509123531 | 68 | 308 | 0.0 | 0.0 | 0.00 | 0.08 | 0.00 | 87 | 1010.3 |
| 20260509123039 | 68 | 308 | 0.0 | 0.0 | 0.00 | 0.08 | 0.00 | 87 | 1010.4 |
| 20260509122530 | 68 | 308 | 0.0 | 0.0 | 0.00 | 0.08 | 0.00 | 86 | 1010.3 |
| 20260509122036 | 68 | 308 | 0.0 | 3.5 | 0.00 | 0.08 | 0.00 | 86 | 1010.3 |
| 20260509121522 | 68 | 307 | 0.0 | 3.5 | 0.00 | 0.08 | 0.00 | 86 | 1010.3 |
| 20260509121030 | 68 | 307 | 0.9 | 5.2 | 0.00 | 0.08 | 0.00 | 86 | 1010.2 |
| 20260509120537 | 68 | 306 | 0.0 | 5.2 | 0.00 | 0.08 | 0.00 | 86 | 1010.1 |
| 20260509120025 | 68 | 320 | 0.0 | 2.6 | 0.00 | 0.08 | 0.00 | 86 | 1010.1 |
| 20260509115528 | 68 | 319 | 0.9 | 2.6 | 0.00 | 0.08 | 0.00 | 86 | 1010.1 |
| 20260509115030 | 68 | 316 | 0.0 | 5.2 | 0.00 | 0.08 | 0.00 | 85 | 1010.0 |
| 20260509114541 | 68 | 301 | 0.9 | 5.2 | 0.00 | 0.08 | 0.00 | 85 | 1009.9 |
| 20260509114043 | 68 | 327 | 0.0 | 3.5 | 0.00 | 0.08 | 0.00 | 85 | 1009.8 |
| 20260509113537 | 68 | 343 | 0.9 | 4.3 | 0.00 | 0.08 | 0.00 | 85 | 1009.6 |
| 20260509113023 | 68 | 308 | 0.9 | 7.0 | 0.00 | 0.08 | 0.00 | 85 | 1009.5 |
| 20260509112532 | 68 | 292 | 1.7 | 7.8 | 0.00 | 0.08 | 0.00 | 84 | 1009.5 |
| 20260509112038 | 68 | 326 | 1.7 | 7.8 | 0.00 | 0.08 | 0.00 | 84 | 1009.5 |
| 20260509111547 | 68 | 297 | 0.9 | 7.0 | 0.00 | 0.08 | 0.00 | 84 | 1009.5 |
| 20260509111058 | 68 | 290 | 0.0 | 7.8 | 0.00 | 0.08 | 0.00 | 83 | 1009.5 |
| 20260509110546 | 68 | 296 | 4.3 | 8.7 | 0.00 | 0.08 | 0.00 | 83 | 1009.0 |
| 20260509110033 | 68 | 276 | 3.5 | 8.7 | 0.00 | 0.08 | 0.00 | 83 | 1009.3 |
| 20260509105524 | 68 | 280 | 4.3 | 10.4 | 0.00 | 0.08 | 0.00 | 82 | 1009.1 |
| 20260509105029 | 68 | 291 | 5.2 | 10.4 | 0.00 | 0.08 | 0.00 | 82 | 1009.0 |
| 20260509104532 | 68 | 286 | 4.3 | 8.7 | 0.00 | 0.31 | 0.00 | 82 | 1009.0 |
| 20260509104039 | 68 | 277 | 0.9 | 5.2 | 0.00 | 0.31 | 0.00 | 82 | 1008.9 |
| 20260509103528 | 68 | 258 | 0.0 | 5.2 | 0.00 | 0.31 | 0.00 | 81 | 1009.0 |
| 20260509103021 | 68 | 257 | 3.5 | 5.2 | 0.00 | 0.31 | 0.00 | 81 | 1008.9 |
| 20260509102531 | 68 | 251 | 0.9 | 5.2 | 0.00 | 0.31 | 0.00 | 80 | 1008.7 |
| 20260509102023 | 69 | 253 | 0.0 | 4.3 | 0.00 | 0.31 | 0.00 | 79 | 1008.7 |
| 20260509101550 | 69 | 264 | 0.0 | 2.6 | 0.00 | 0.31 | 0.00 | 79 | 1008.7 |
| 20260509101041 | 69 | 291 | 0.0 | 2.6 | 0.00 | 0.31 | 0.00 | 78 | 1008.6 |
| 20260509100529 | 69 | 291 | 0.0 | 0.0 | 0.00 | 0.31 | 0.00 | 77 | 1008.6 |
| 20260509100032 | 70 | 291 | 0.0 | 0.0 | 0.00 | 0.31 | 0.00 | 77 | 1008.7 |
| 20260509095541 | 70 | 291 | 0.0 | 0.0 | 0.00 | 0.31 | 0.00 | 76 | 1008.5 |
| 20260509095027 | 70 | 291 | 0.0 | 0.0 | 0.00 | 0.31 | 0.00 | 76 | 1008.4 |
| 20260509094529 | 70 | 291 | 0.0 | 2.6 | 0.00 | 0.35 | 0.00 | 75 | 1008.3 |
| 20260509094048 | 71 | 291 | 0.0 | 2.6 | 0.00 | 0.35 | 0.00 | 75 | 1008.2 |
| 20260509093538 | 71 | 291 | 0.0 | 0.9 | 0.00 | 0.35 | 0.00 | 74 | 1008.1 |
| 20260509093043 | 71 | 291 | 0.0 | 3.5 | 0.00 | 0.35 | 0.00 | 73 | 1008.0 |
| 20260509092525 | 72 | 291 | 0.9 | 3.5 | 0.00 | 0.35 | 0.00 | 72 | 1008.0 |
| 20260509092029 | 72 | 291 | 1.7 | 3.5 | 0.00 | 0.35 | 0.00 | 71 | 1007.9 |
| 20260509091540 | 73 | 327 | 0.0 | 2.6 | 0.00 | 0.35 | 0.00 | 70 | 1007.8 |
| 20260509091029 | 73 | 328 | 0.9 | 2.6 | 0.00 | 0.35 | 0.00 | 69 | 1007.8 |
| 20260509090557 | 73 | 264 | 0.0 | 2.6 | 0.00 | 0.35 | 0.00 | 68 | 1007.9 |
| 20260509090025 | 73 | 220 | 0.0 | 0.9 | 0.00 | 0.35 | 0.00 | 69 | 1007.8 |
| 20260509085531 | 73 | 247 | 0.0 | 11.3 | 0.00 | 0.35 | 0.00 | 71 | 1007.7 |
| 20260509085041 | 73 | 344 | 3.5 | 25.2 | 0.00 | 0.35 | 0.00 | 72 | 1008.1 |
| 20260509084526 | 72 | 251 | 11.3 | 25.2 | 0.00 | 0.36 | 0.00 | 72 | 1008.3 |
| 20260509084033 | 72 | 299 | 4.3 | 15.6 | 0.00 | 0.36 | 0.00 | 76 | 1008.0 |
| 20260509083525 | 72 | 229 | 7.0 | 15.6 | 0.00 | 0.36 | 0.00 | 75 | 1005.8 |
| 20260509083030 | 72 | 202 | 7.0 | 13.0 | 0.00 | 0.36 | 0.00 | 75 | 1005.7 |
| 20260509082532 | 71 | 191 | 6.1 | 11.3 | 0.00 | 0.36 | 0.00 | 77 | 1005.2 |
| 20260509082021 | 71 | 168 | 8.7 | 11.3 | 0.00 | 0.36 | 0.00 | 77 | 1005.4 |
| 20260509081559 | 71 | 237 | 7.8 | 10.4 | 0.00 | 0.36 | 0.00 | 77 | 1006.3 |
| 20260509081048 | 71 | 138 | 4.3 | 10.4 | 0.00 | 0.36 | 0.00 | 79 | 1005.4 |
| 20260509080536 | 71 | 206 | 5.2 | 12.2 | 0.00 | 0.36 | 0.00 | 81 | 1006.0 |
| 20260509080023 | 70 | 206 | 4.3 | 12.2 | 0.00 | 0.36 | 0.00 | 83 | 1006.5 |
| 20260509075526 | 70 | 200 | 7.8 | 12.2 | 0.00 | 0.36 | 0.00 | 84 | 1007.1 |
| 20260509075026 | 70 | 207 | 3.5 | 9.6 | 0.00 | 0.36 | 0.00 | 85 | 1007.6 |
| 20260509074531 | 70 | 217 | 3.5 | 9.6 | 0.00 | 0.47 | 0.00 | 85 | 1008.0 |
| 20260509074058 | 70 | 225 | 0.9 | 11.3 | 0.00 | 0.47 | 0.00 | 85 | 1008.4 |
| 20260509073525 | 70 | 227 | 6.1 | 13.0 | 0.00 | 0.47 | 0.00 | 86 | 1008.7 |
| 20260509073029 | 70 | 214 | 9.6 | 13.0 | 0.00 | 0.47 | 0.00 | 86 | 1008.9 |
| 20260509072539 | 70 | 237 | 4.3 | 11.3 | 0.00 | 0.47 | 0.00 | 86 | 1009.2 |
| 20260509072037 | 70 | 226 | 2.6 | 10.4 | 0.00 | 0.47 | 0.00 | 86 | 1009.3 |
| 20260509071538 | 69 | 245 | 0.9 | 8.7 | 0.00 | 0.47 | 0.00 | 86 | 1009.4 |
| 20260509071023 | 69 | 274 | 0.9 | 3.5 | 0.00 | 0.47 | 0.00 | 86 | 1009.5 |
| 20260509070558 | 69 | 213 | 0.0 | 8.7 | 0.00 | 0.47 | 0.00 | 86 | 1009.6 |
| 20260509070023 | 69 | 232 | 0.0 | 8.7 | 0.00 | 0.47 | 0.00 | 86 | 1010.0 |
| 20260509065547 | 69 | 219 | 1.7 | 6.1 | 0.00 | 0.47 | 0.00 | 86 | 1010.3 |
| 20260509065033 | 69 | 239 | 0.0 | 7.8 | 0.00 | 0.47 | 0.00 | 87 | 1010.2 |
| 20260509064536 | 69 | 224 | 0.0 | 7.8 | 0.00 | 0.47 | 0.00 | 86 | 1010.1 |
| 20260509064041 | 69 | 218 | 0.0 | 0.0 | 0.00 | 0.47 | 0.00 | 86 | 1010.4 |
| 20260509063548 | 68 | 249 | 0.0 | 1.7 | 0.00 | 0.47 | 0.00 | 86 | 1010.7 |
| 20260509063035 | 68 | 248 | 0.0 | 1.7 | 0.00 | 0.47 | 0.00 | 86 | 1010.7 |
| 20260509062545 | 69 | 230 | 0.0 | 0.0 | 0.00 | 0.47 | 0.00 | 86 | 1010.6 |
| 20260509062033 | 69 | 225 | 0.0 | 0.0 | 0.00 | 0.47 | 0.00 | 86 | 1010.7 |
| 20260509061533 | 69 | 254 | 0.0 | 0.0 | 0.00 | 0.47 | 0.00 | 85 | 1010.8 |
| 20260509061040 | 69 | 254 | 0.0 | 0.0 | 0.00 | 0.47 | 0.00 | 85 | 1010.8 |
| 20260509060546 | 69 | 260 | 0.0 | 0.0 | 0.00 | 0.47 | 0.00 | 85 | 1010.7 |
| 20260509060057 | 69 | 274 | 0.0 | 0.0 | 0.00 | 0.47 | 0.00 | 84 | 1010.6 |
| 20260509055538 | 69 | 275 | 0.0 | 2.6 | 0.00 | 0.47 | 0.47 | 84 | 1010.6 |
| 20260509055027 | 70 | 276 | 0.0 | 2.6 | 0.00 | 0.47 | 0.47 | 84 | 1010.6 |
| 20260509054559 | 70 | 283 | 0.0 | 2.6 | 0.00 | 0.47 | 0.47 | 84 | 1010.4 |
| 20260509054042 | 70 | 343 | 0.0 | 1.7 | 0.00 | 0.47 | 0.47 | 84 | 1010.3 |
| 20260509053555 | 70 | 344 | 0.0 | 0.0 | 0.00 | 0.47 | 0.47 | 83 | 1010.7 |
| 20260509053025 | 70 | 344 | 0.0 | 0.0 | 0.00 | 0.47 | 0.47 | 83 | 1010.7 |
| 20260509052559 | 70 | 343 | 0.0 | 0.0 | 0.00 | 0.47 | 0.47 | 83 | 1010.6 |
| 20260509052045 | 70 | 344 | 0.0 | 0.0 | 0.00 | 0.47 | 0.47 | 82 | 1011.0 |
| 20260509051529 | 71 | 344 | 0.0 | 2.6 | 0.00 | 0.47 | 0.47 | 82 | 1011.0 |
| 20260509051036 | 71 | 346 | 0.0 | 2.6 | 0.00 | 0.47 | 0.47 | 81 | 1011.3 |
| 20260509050524 | 71 | 344 | 0.0 | 2.6 | 0.00 | 0.47 | 0.47 | 81 | 1011.2 |
| 20260509050058 | 72 | 353 | 1.7 | 3.5 | 0.00 | 0.47 | 0.47 | 80 | 1011.3 |
| 20260509045525 | 72 | 348 | 0.9 | 3.5 | 0.00 | 0.47 | 0.47 | 80 | 1011.4 |
| 20260509045029 | 72 | 135 | 0.0 | 0.0 | 0.00 | 0.47 | 0.47 | 80 | 1010.5 |
| 20260509044536 | 72 | 135 | 0.0 | 0.0 | 0.00 | 0.47 | 0.47 | 79 | 1010.3 |
| 20260509044029 | 73 | 135 | 0.0 | 3.5 | 0.00 | 0.47 | 0.47 | 79 | 1010.3 |
| 20260509043529 | 73 | 171 | 0.0 | 3.5 | 0.00 | 0.47 | 0.47 | 79 | 1010.1 |
| 20260509043038 | 72 | 196 | 0.0 | 2.6 | 0.00 | 0.47 | 0.47 | 79 | 1009.9 |
| 20260509042544 | 72 | 176 | 0.0 | 5.2 | 0.00 | 0.47 | 0.47 | 80 | 1009.7 |
| 20260509042028 | 72 | 175 | 0.9 | 5.2 | 0.00 | 0.47 | 0.47 | 80 | 1009.6 |
| 20260509041534 | 72 | 179 | 0.0 | 3.5 | 0.00 | 0.47 | 0.47 | 80 | 1009.5 |
| 20260509041040 | 72 | 134 | 1.7 | 3.5 | 0.00 | 0.47 | 0.47 | 80 | 1009.5 |
| 20260509040527 | 72 | 133 | 0.0 | 0.9 | 0.00 | 0.47 | 0.47 | 80 | 1009.6 |
| 20260509040058 | 72 | 148 | 0.0 | 0.0 | 0.00 | 0.47 | 0.47 | 80 | 1009.5 |
| 20260509035525 | 72 | 144 | 0.0 | 0.0 | 0.00 | 0.47 | 0.47 | 80 | 1009.7 |
| 20260509035032 | 72 | 127 | 0.0 | 0.0 | 0.00 | 0.47 | 0.47 | 80 | 1009.7 |
| 20260509034523 | 72 | 120 | 0.0 | 0.0 | 0.00 | 0.47 | 0.47 | 80 | 1009.6 |
| 20260509034032 | 72 | 116 | 0.0 | 0.0 | 0.00 | 0.47 | 0.47 | 80 | 1009.7 |
| 20260509033533 | 72 | 97 | 0.0 | 0.0 | 0.00 | 0.47 | 0.47 | 80 | 1009.6 |
| 20260509033053 | 72 | 78 | 0.0 | 6.1 | 0.00 | 0.47 | 0.47 | 80 | 1009.8 |
| 20260509032537 | 72 | 66 | 2.6 | 6.1 | 0.00 | 0.47 | 0.47 | 80 | 1009.9 |
| 20260509032044 | 72 | 61 | 1.7 | 6.1 | 0.00 | 0.47 | 0.47 | 79 | 1010.0 |
| 20260509031545 | 72 | 52 | 0.9 | 6.1 | 0.00 | 0.47 | 0.47 | 79 | 1009.9 |
| 20260509031039 | 72 | 54 | 0.0 | 5.2 | 0.00 | 0.47 | 0.47 | 79 | 1009.8 |
| 20260509030543 | 72 | 68 | 0.0 | 5.2 | 0.00 | 0.47 | 0.47 | 79 | 1009.4 |
| 20260509030025 | 72 | 96 | 0.0 | 5.2 | 0.00 | 0.47 | 0.47 | 78 | 1009.1 |
| 20260509025532 | 72 | 118 | 0.0 | 3.5 | 0.00 | 0.47 | 0.47 | 78 | 1008.7 |
| 20260509025035 | 72 | 115 | 0.0 | 3.5 | 0.00 | 0.47 | 0.47 | 78 | 1008.4 |
| 20260509024523 | 72 | 118 | 0.0 | 3.5 | 0.00 | 0.47 | 0.47 | 78 | 1008.5 |
| 20260509024101 | 73 | 122 | 0.0 | 5.2 | 0.00 | 0.47 | 0.47 | 78 | 1008.6 |
| 20260509023531 | 73 | 131 | 2.6 | 7.8 | 0.00 | 0.47 | 0.47 | 77 | 1008.4 |
| 20260509023038 | 73 | 148 | 1.7 | 7.8 | 0.00 | 0.47 | 0.47 | 77 | 1008.3 |
| 20260509022528 | 73 | 121 | 0.9 | 3.5 | 0.00 | 0.47 | 0.47 | 77 | 1008.1 |
| 20260509022032 | 73 | 169 | 0.0 | 4.3 | 0.00 | 0.47 | 0.47 | 77 | 1008.1 |
| 20260509021544 | 73 | 193 | 0.0 | 4.3 | 0.00 | 0.47 | 0.47 | 77 | 1008.1 |
| 20260509021053 | 73 | 189 | 0.0 | 3.5 | 0.00 | 0.47 | 0.47 | 77 | 1008.0 |
| 20260509020540 | 73 | 189 | 0.0 | 5.2 | 0.00 | 0.47 | 0.47 | 76 | 1007.9 |
| 20260509020029 | 73 | 186 | 0.0 | 8.7 | 0.00 | 0.47 | 0.47 | 76 | 1007.7 |
| 20260509015533 | 73 | 177 | 0.0 | 8.7 | 0.00 | 0.47 | 0.47 | 76 | 1007.6 |
| 20260509015024 | 73 | 212 | 0.9 | 8.7 | 0.00 | 0.47 | 0.47 | 76 | 1007.6 |
| 20260509014528 | 73 | 187 | 1.7 | 8.7 | 0.00 | 0.47 | 0.47 | 76 | 1007.5 |
| 20260509014034 | 73 | 148 | 0.0 | 6.1 | 0.00 | 0.47 | 0.47 | 75 | 1007.6 |
| 20260509013547 | 73 | 211 | 1.7 | 6.1 | 0.00 | 0.47 | 0.47 | 75 | 1007.8 |
| 20260509013054 | 73 | 181 | 0.9 | 3.5 | 0.00 | 0.47 | 0.47 | 75 | 1008.0 |
| 20260509012523 | 73 | 191 | 0.9 | 5.2 | 0.00 | 0.47 | 0.47 | 75 | 1008.1 |
| 20260509012032 | 73 | 191 | 0.0 | 7.0 | 0.00 | 0.47 | 0.47 | 75 | 1008.2 |
| 20260509011539 | 73 | 210 | 0.0 | 7.0 | 0.00 | 0.47 | 0.47 | 75 | 1008.3 |
| 20260509011037 | 73 | 194 | 0.0 | 0.0 | 0.00 | 0.47 | 0.47 | 75 | 1008.2 |
| 20260509010541 | 73 | 195 | 0.0 | 2.6 | 0.00 | 0.47 | 0.47 | 75 | 1008.1 |
| 20260509010030 | 73 | 213 | 0.0 | 2.6 | 0.00 | 0.47 | 0.47 | 75 | 1008.1 |
| 20260509005542 | 74 | 193 | 0.0 | 6.1 | 0.00 | 0.47 | 0.47 | 74 | 1008.0 |
| 20260509005026 | 74 | 204 | 0.0 | 8.7 | 0.00 | 0.47 | 0.47 | 74 | 1007.9 |
| 20260509004537 | 74 | 185 | 1.7 | 10.4 | 0.00 | 0.47 | 0.47 | 74 | 1007.8 |
| 20260509004024 | 74 | 197 | 1.7 | 10.4 | 0.00 | 0.47 | 0.47 | 74 | 1007.8 |
| 20260509003527 | 74 | 210 | 0.0 | 8.7 | 0.00 | 0.47 | 0.47 | 74 | 1007.7 |
| 20260509003027 | 74 | 207 | 0.0 | 5.2 | 0.00 | 0.47 | 0.47 | 74 | 1007.7 |
| 20260509002537 | 74 | 191 | 0.0 | 8.7 | 0.00 | 0.47 | 0.47 | 73 | 1007.7 |
| 20260509002025 | 74 | 204 | 0.0 | 8.7 | 0.00 | 0.47 | 0.47 | 73 | 1007.6 |
| 20260509001529 | 74 | 188 | 3.5 | 8.7 | 0.00 | 0.47 | 0.47 | 72 | 1007.6 |
| 20260509001036 | 74 | 186 | 3.5 | 8.7 | 0.00 | 0.47 | 0.47 | 72 | 1007.5 |
| 20260509000546 | 74 | 179 | 0.0 | 8.7 | 0.00 | 0.47 | 0.47 | 72 | 1007.5 |
| 20260509000048 | 74 | 197 | 1.7 | 9.6 | 0.00 | 0.47 | 0.47 | 71 | 1007.6 |
| 20260508235537 | 75 | 148 | 3.5 | 9.6 | 0.00 | 0.47 | 0.47 | 71 | 1007.6 |
| 20260508235045 | 75 | 213 | 0.0 | 2.6 | 0.00 | 0.47 | 0.47 | 71 | 1007.8 |
| 20260508234551 | 75 | 179 | 0.0 | 2.6 | 0.00 | 0.47 | 0.47 | 70 | 1007.9 |
| 20260508234020 | 75 | 179 | 0.0 | 5.2 | 0.00 | 0.47 | 0.47 | 70 | 1007.9 |
| 20260508233526 | 75 | 183 | 0.0 | 5.2 | 0.00 | 0.47 | 0.47 | 70 | 1007.9 |
| 20260508233040 | 75 | 183 | 0.0 | 10.4 | 0.00 | 0.47 | 0.47 | 70 | 1008.0 |
| 20260508232608 | 75 | 191 | 3.5 | 10.4 | 0.00 | 0.47 | 0.47 | 69 | 1008.1 |
| 20260508232053 | 75 | 190 | 4.3 | 9.6 | 0.00 | 0.47 | 0.47 | 69 | 1008.1 |
| 20260508231542 | 75 | 205 | 4.3 | 9.6 | 0.00 | 0.47 | 0.47 | 69 | 1008.1 |
| 20260508231101 | 75 | 196 | 1.7 | 7.8 | 0.00 | 0.47 | 0.47 | 69 | 1008.0 |
| 20260508230548 | 76 | 174 | 4.3 | 8.7 | 0.00 | 0.47 | 0.47 | 69 | 1008.0 |
| 20260508230033 | 76 | 204 | 3.5 | 8.7 | 0.00 | 0.47 | 0.47 | 68 | 1008.0 |
| 20260508225524 | 76 | 129 | 0.0 | 7.8 | 0.00 | 0.47 | 0.47 | 68 | 1008.0 |
| 20260508225029 | 76 | 166 | 3.5 | 7.8 | 0.00 | 0.47 | 0.47 | 67 | 1008.0 |
| 20260508224537 | 76 | 216 | 0.9 | 7.8 | 0.00 | 0.47 | 0.47 | 67 | 1008.0 |
| 20260508224026 | 76 | 165 | 1.7 | 7.8 | 0.00 | 0.47 | 0.47 | 67 | 1008.0 |
| 20260508223531 | 77 | 193 | 0.9 | 8.7 | 0.00 | 0.47 | 0.47 | 66 | 1008.1 |
| 20260508223040 | 77 | 191 | 0.9 | 8.7 | 0.00 | 0.47 | 0.47 | 66 | 1008.1 |
| 20260508222526 | 77 | 153 | 1.7 | 9.6 | 0.00 | 0.47 | 0.47 | 65 | 1008.1 |
| 20260508222031 | 77 | 168 | 4.3 | 9.6 | 0.00 | 0.47 | 0.47 | 65 | 1008.1 |
| 20260508221519 | 77 | 164 | 6.1 | 9.6 | 0.00 | 0.47 | 0.47 | 64 | 1008.1 |
| 20260508221053 | 77 | 191 | 3.5 | 11.3 | 0.00 | 0.47 | 0.47 | 63 | 1008.1 |
| 20260508220536 | 77 | 188 | 5.2 | 11.3 | 0.00 | 0.47 | 0.47 | 63 | 1008.1 |
| 20260508220027 | 77 | 199 | 2.6 | 10.4 | 0.00 | 0.47 | 0.47 | 62 | 1008.2 |
| 20260508215537 | 77 | 188 | 2.6 | 11.3 | 0.00 | 0.47 | 0.47 | 62 | 1008.2 |
| 20260508215034 | 77 | 163 | 1.7 | 11.3 | 0.00 | 0.47 | 0.47 | 62 | 1008.1 |
| 20260508214523 | 77 | 129 | 1.7 | 10.4 | 0.00 | 0.47 | 0.47 | 61 | 1008.1 |
| 20260508214031 | 77 | 148 | 5.2 | 10.4 | 0.00 | 0.47 | 0.47 | 61 | 1008.2 |
| 20260508213540 | 77 | 144 | 2.6 | 11.3 | 0.00 | 0.47 | 0.47 | 62 | 1008.2 |
| 20260508213044 | 77 | 132 | 6.1 | 11.3 | 0.00 | 0.47 | 0.47 | 62 | 1008.3 |
| 20260508212525 | 77 | 162 | 0.9 | 8.7 | 0.00 | 0.47 | 0.47 | 63 | 1008.3 |
| 20260508212031 | 76 | 165 | 0.0 | 6.1 | 0.00 | 0.47 | 0.47 | 62 | 1008.6 |
| 20260508211534 | 77 | 177 | 1.7 | 8.7 | 0.00 | 0.47 | 0.47 | 63 | 1008.7 |
| 20260508211038 | 77 | 118 | 0.9 | 8.7 | 0.00 | 0.47 | 0.47 | 64 | 1008.7 |
| 20260508210527 | 77 | 148 | 0.9 | 6.1 | 0.00 | 0.47 | 0.47 | 63 | 1008.9 |
| 20260508210034 | 77 | 126 | 0.9 | 7.8 | 0.00 | 0.47 | 0.47 | 63 | 1008.9 |
| 20260508205523 | 77 | 163 | 0.0 | 7.8 | 0.00 | 0.47 | 0.47 | 63 | 1008.9 |
| 20260508205038 | 77 | 118 | 1.7 | 6.1 | 0.00 | 0.47 | 0.47 | 63 | 1008.9 |
| 20260508204520 | 76 | 104 | 0.0 | 8.7 | 0.00 | 0.47 | 0.47 | 65 | 1008.8 |
| 20260508204024 | 76 | 148 | 3.5 | 9.6 | 0.00 | 0.47 | 0.47 | 64 | 1008.6 |
| 20260508203546 | 76 | 110 | 5.2 | 10.4 | 0.00 | 0.47 | 0.47 | 64 | 1009.0 |
| 20260508203030 | 75 | 121 | 4.3 | 10.4 | 0.00 | 0.47 | 0.47 | 64 | 1009.3 |
| 20260508202532 | 74 | 174 | 1.7 | 10.4 | 0.00 | 0.47 | 0.47 | 65 | 1009.7 |
| 20260508202039 | 73 | 181 | 0.9 | 9.6 | 0.00 | 0.47 | 0.47 | 66 | 1009.9 |
| 20260508201522 | 73 | 183 | 5.2 | 9.6 | 0.00 | 0.47 | 0.47 | 66 | 1010.2 |
| 20260508201022 | 73 | 191 | 1.7 | 10.4 | 0.00 | 0.47 | 0.47 | 66 | 1010.3 |
| 20260508200528 | 73 | 219 | 4.3 | 10.4 | 0.00 | 0.47 | 0.47 | 66 | 1010.5 |
| 20260508200039 | 73 | 225 | 1.7 | 9.6 | 0.00 | 0.47 | 0.47 | 66 | 1010.6 |
| 20260508195525 | 74 | 193 | 3.5 | 9.6 | 0.00 | 0.47 | 0.47 | 65 | 1010.7 |
| 20260508195033 | 74 | 136 | 0.9 | 7.8 | 0.00 | 0.47 | 0.47 | 65 | 1010.6 |
| 20260508194523 | 74 | 190 | 0.9 | 5.2 | 0.00 | 0.47 | 0.47 | 65 | 1010.5 |
| 20260508194032 | 74 | 211 | 0.0 | 6.1 | 0.00 | 0.47 | 0.47 | 65 | 1010.6 |
| 20260508193527 | 74 | 133 | 0.0 | 10.4 | 0.00 | 0.47 | 0.47 | 65 | 1010.5 |
| 20260508193028 | 75 | 208 | 2.6 | 10.4 | 0.00 | 0.47 | 0.47 | 64 | 1010.5 |
| 20260508192536 | 75 | 189 | 0.9 | 5.2 | 0.00 | 0.47 | 0.47 | 65 | 1010.5 |
| 20260508192042 | 74 | 167 | 0.9 | 9.6 | 0.00 | 0.47 | 0.47 | 65 | 1010.5 |
| 20260508191527 | 74 | 175 | 3.5 | 9.6 | 0.00 | 0.47 | 0.47 | 65 | 1010.6 |
| 20260508191037 | 75 | 177 | 2.6 | 8.7 | 0.00 | 0.47 | 0.47 | 64 | 1010.7 |
| 20260508190523 | 75 | 204 | 1.7 | 7.8 | 0.00 | 0.47 | 0.47 | 63 | 1010.7 |
| 20260508190028 | 75 | 183 | 2.6 | 7.8 | 0.00 | 0.47 | 0.47 | 64 | 1010.7 |
| 20260508185530 | 75 | 212 | 0.0 | 6.1 | 0.00 | 0.47 | 0.47 | 64 | 1010.7 |
| 20260508185034 | 75 | 177 | 0.9 | 6.1 | 0.00 | 0.47 | 0.47 | 63 | 1010.7 |
| 20260508184541 | 75 | 153 | 2.6 | 5.2 | 0.00 | 0.47 | 0.47 | 64 | 1010.8 |
| 20260508184028 | 75 | 195 | 0.9 | 7.8 | 0.00 | 0.47 | 0.47 | 63 | 1010.8 |
| 20260508183538 | 75 | 180 | 3.5 | 8.7 | 0.00 | 0.47 | 0.47 | 63 | 1010.9 |
| 20260508183026 | 75 | 179 | 0.0 | 8.7 | 0.00 | 0.47 | 0.47 | 62 | 1011.0 |
| 20260508182529 | 76 | 133 | 1.7 | 7.8 | 0.00 | 0.47 | 0.47 | 62 | 1011.1 |
| 20260508182035 | 76 | 187 | 0.9 | 7.8 | 0.00 | 0.47 | 0.47 | 63 | 1011.1 |
| 20260508181520 | 76 | 179 | 0.0 | 7.8 | 0.00 | 0.47 | 0.47 | 62 | 1011.3 |
| 20260508181031 | 75 | 182 | 0.0 | 8.7 | 0.00 | 0.47 | 0.47 | 63 | 1011.3 |
| 20260508180603 | 75 | 189 | 2.6 | 8.7 | 0.00 | 0.47 | 0.47 | 63 | 1011.4 |
| 20260508180043 | 75 | 177 | 1.7 | 9.6 | 0.00 | 0.47 | 0.47 | 62 | 1011.5 |
| 20260508175551 | 74 | 196 | 0.9 | 9.6 | 0.00 | 0.47 | 0.47 | 63 | 1011.6 |
| 20260508175040 | 74 | 190 | 2.6 | 7.8 | 0.00 | 0.47 | 0.47 | 62 | 1011.8 |
| 20260508174533 | 75 | 217 | 0.9 | 6.1 | 0.00 | 0.47 | 0.47 | 62 | 1011.8 |